[[{"header":{"parameterUnit":"m.s-1","parameterCategory":1,"la1":30.2991,"la2":30.254,"lo1":-89.0895,"lo2":-89.0444,"dy":0.0017,"dx":0.0017,"nx":28,"ny":28,"refTime":"2023-10-05T03:00:00:Z","depth":0,"parameterNumber":2,"parameterNumberName":"U-component_of_WINDS"},"data":[0,0,0,0,0,0,0,0,0,0,0,0,0,0,0,0,0,0,0,0,0,0,0,0,0,0,0,0,0,0,0,0,0,0,0,0,0,0,0,0,0,0,0,0,0,0,0,0,0,0,0,0,0,0,0,0,0,0,-5.1146,-5.1146,0,-5.1131,-5.1131,-5.1131,-5.1005,-5.1002,-5.0999,-5.0996,-5.0981,-5.0983,-5.0986,0,0,0,0,0,0,0,0,0,0,0,0,0,-5.1067,-5.1069,-5.1146,-5.1146,-5.1146,-5.1131,-5.1131,-5.1131,-5.1006,-5.1002,-5.0998,-5.0994,-5.098,-5.0983,-5.0986,0,0,0,0,0,0,0,0,0,0,0,0,0,-5.1082,-5.107,-5.1146,-5.1081,-5.1075,-5.1131,-5.1131,-5.1131,-5.1006,-5.1002,-5.0997,-5.0993,-5.0979,-5.0982,-5.0986,-5.1103,0,0,-5.0998,-5.0999,0,0,0,0,0,0,0,0,-5.1081,-5.1085,-5.1091,-5.1086,-5.1079,-5.1065,-5.1098,-5.1122,-5.1008,-5.1033,-5.0996,-5.099,-5.1013,-5.1013,-5.1021,-5.1102,-5.1102,-5.0998,-5.1,-5.1002,-5.1003,0,0,0,0,0,0,0,-5.108,-5.1085,-5.114,-5.1091,-5.1084,-5.1054,-5.1051,-5.1102,-5.1049,-5.103,-5.1021,-5.1021,-5.1008,-5.1017,-5.1019,-5.1101,-5.0998,-5.1001,-5.1004,-5.1005,-5.128,-5.1285,0,0,0,0,0,0,-5.1088,-5.1085,-5.1141,-5.114,-5.1069,-5.1059,-5.1055,-5.1075,-5.1048,-5.104,-5.1025,-5.1015,-5.1013,-5.1015,-5.1018,-5.1153,-5.1002,-5.1005,-5.1007,-5.1275,-5.1281,-5.1286,0,0,0,0,0,0,-5.1087,-5.1094,-5.1141,-5.111,-5.1113,-5.1065,-5.1088,-5.1077,-5.1085,-5.1044,-5.1034,-5.1044,-5.101,-5.1013,-5.1083,-5.1151,-5.1007,-5.101,-5.1269,-5.1277,-5.1284,-5.1425,0,0,0,0,0,0,-5.1085,-5.1095,-5.1138,-5.1112,-5.1116,-5.1206,-5.1092,-5.108,-5.1092,-5.1079,-5.1059,-5.1051,-5.1006,-5.1078,-5.1087,-5.1154,-5.1013,-5.1262,-5.1272,-5.1281,-5.1414,-5.1436,-5.1456,0,0,0,0,0,-5.1083,-5.1178,-5.1141,-5.1148,-5.1169,-5.121,-5.1212,-5.1159,-5.1098,-5.1142,-5.1116,-5.1052,-5.1143,-5.1087,-5.1095,-5.1164,-5.1258,-5.1269,-5.128,-5.1405,-5.1432,-5.1455,0,0,0,0,0,0,-5.1212,-5.1173,-5.1131,-5.122,-5.122,-5.1189,-5.1241,-5.1189,-5.1205,-5.1192,-5.1125,-5.1122,-5.1203,-5.1191,-5.1128,-5.1277,-5.119,-5.1203,-5.1281,-5.1307,-5.1327,-5.1327,-5.1016,0,0,0,0,0,-5.1251,-5.1288,-5.1252,-5.1334,-5.1336,-5.129,-5.1306,-5.1265,-5.1261,-5.126,-5.1239,-5.1238,-5.1266,-5.1286,-5.131,-5.1413,-5.1407,-5.1465,-5.1486,-5.1503,-5.1515,-5.1569,-5.1595,-5.1324,-5.1324,-5.1323,0,0,-5.1331,-5.1315,-5.1342,-5.136,-5.1354,-5.1394,-5.129,-5.1336,-5.1365,-5.1267,-5.1331,-5.1317,-5.1312,-5.1399,-5.1436,-5.1391,-5.1589,-5.1518,-5.1532,-5.1534,-5.1584,-5.1609,-5.1632,-5.1331,-5.133,-5.1329,0,0,-5.1498,-5.1489,-5.1557,-5.1555,-5.1548,-5.1517,-5.1535,-5.1512,-5.1499,-5.1563,-5.1491,-5.1525,-5.1575,-5.1575,-5.1581,-5.1753,-5.1695,-5.1763,-5.1871,-5.1925,-5.1946,-5.1964,-5.2025,-5.2048,-5.1775,-5.1776,-5.1776,0,-5.1598,-5.1655,-5.1599,-5.165,-5.1661,-5.1576,-5.1644,-5.1645,-5.1647,-5.1656,-5.1607,-5.167,-5.166,-5.1746,-5.1789,-5.1797,-5.1814,-5.1763,-5.1947,-5.1965,-5.1982,-5.2039,-5.2062,-5.1784,-5.1783,-5.1782,-5.1781,0,-5.1779,-5.182,-5.1876,-5.1881,-5.1898,-5.1959,-5.1912,-5.1937,-5.1896,-5.1871,-5.1939,-5.1925,-5.1945,-5.1963,-5.1923,-5.2045,-5.2017,-5.1959,-5.1869,-5.2017,-5.2069,-5.2091,-5.1796,-5.1793,-5.179,-5.1788,0,0,-5.2021,-5.1998,-5.2019,-5.2021,-5.201,-5.2041,-5.2099,-5.2119,-5.2142,-5.2148,-5.2194,-5.2241,-5.2187,-5.2195,-5.2155,-5.2203,-5.234,-5.2138,-5.2137,-5.2175,-5.2473,-5.2516,-5.2542,-5.2303,-5.2307,-5.231,-5.2473,0,-5.2181,-5.2277,-5.223,-5.2332,-5.237,-5.2292,-5.2342,-5.2342,-5.2321,-5.2351,-5.2328,-5.2361,-5.2289,-5.2293,-5.2337,-5.2314,-5.2398,-5.2302,-5.2345,-5.2347,-5.2346,-5.2569,-5.2614,-5.2768,-5.2493,-5.2497,-5.2499,0,-5.2378,-5.2394,-5.25,-5.2484,-5.2498,-5.2544,-5.256,-5.259,-5.2589,-5.2571,-5.2582,-5.2531,-5.2588,-5.2502,-5.2579,-5.2514,-5.253,-5.2522,-5.2526,-5.2526,-5.243,-5.2574,-5.2816,-5.2839,-5.2531,-5.2529,-5.2526,0,-5.2543,-5.2591,-5.2661,-5.2666,-5.2649,-5.2684,-5.2678,-5.2673,-5.2689,-5.2704,-5.2714,-5.2736,-5.2747,-5.2765,-5.2723,-5.2664,-5.2806,-5.2716,-5.2792,-5.2793,-5.2822,-5.2821,-5.3069,-5.2837,-5.2836,-5.2836,-5.2835,0,-5.2725,-5.2792,-5.2735,-5.2778,-5.2853,-5.2799,-5.2875,-5.2861,-5.2858,-5.2897,-5.2832,-5.287,-5.2813,-5.2846,-5.2814,-5.2882,-5.2888,-5.2875,-5.2865,-5.288,-5.2881,-5.2887,-5.2874,-5.2842,-5.2841,-5.2839,-5.2838,0,-5.292,-5.2884,-5.2956,-5.2936,-5.2933,-5.2989,-5.2971,-5.3011,-5.2987,-5.3038,-5.3047,-5.301,-5.3046,-5.3007,-5.304,-5.3018,-5.3111,-5.3086,-5.3111,-5.3103,-5.3181,-5.3174,-5.344,-5.3472,-5.3221,-5.3223,-5.3225,0,-5.3036,-5.3087,-5.3074,-5.3096,-5.3095,-5.3132,-5.3149,-5.31,-5.312,-5.3125,-5.3164,-5.3195,-5.3216,-5.3278,-5.3254,-5.328,-5.3254,-5.3346,-5.3257,-5.3271,-5.3254,-5.3251,-5.3255,-5.3363,-5.3366,-5.3368,-5.337,0,-5.3247,-5.3228,-5.3255,-5.3278,-5.3301,-5.3316,-5.3325,-5.3348,-5.3297,-5.3324,-5.336,-5.3378,-5.3413,-5.3444,-5.3463,-5.3458,-5.3406,-5.3399,-5.3418,-5.3432,-5.3444,-5.3437,-5.3158,-5.3392,-5.339,-5.3388,-5.3387,-5.3386,-5.3405,-5.3447,-5.3446,-5.3479,-5.3482,-5.3494,-5.353,-5.3513,-5.3543,-5.3567,-5.3537,-5.3583,-5.3583,-5.3603,-5.3605,-5.364,-5.3601,-5.3628,-5.3635,-5.3642,-5.3653,-5.3441,-5.3644,-5.3643,-5.3642,-5.3642,-5.3641,0,-5.3611,-5.3608,-5.3639,-5.3656,-5.3683,-5.3634,-5.3644,-5.3669,-5.371,-5.3715,-5.3739,-5.3783,-5.3814,-5.3795,-5.3821,-5.3853,-5.383,-5.3862,-5.3858,-5.3858,-5.3687,-5.3667,-5.388,-5.388,-5.388,-5.388,-5.388,-5.388,-5.3722,-5.379,-5.3772,-5.3843,-5.3838,-5.3883,-5.3893,-5.3904,-5.3907,-5.3959,-5.3985,-5.3973,-5.3968,-5.3995,-5.4022,-5.4016,-5.4028,-5.4068,-5.4053,-5.3893,-5.387,-5.3847,-5.3828,-5.4072,-5.4072,-5.4221,-5.4222,-5.4223]},{"header":{"parameterUnit":"m.s-1","parameterCategory":1,"la1":30.2991,"la2":30.254,"lo1":-89.0895,"lo2":-89.0444,"dy":0.0017,"dx":0.0017,"nx":28,"ny":28,"refTime":"2023-10-05T03:00:00:Z","depth":0,"parameterNumber":3,"parameterNumberName":"V-component_of_WINDS"},"data":[0,0,0,0,0,0,0,0,0,0,0,0,0,0,0,0,0,0,0,0,0,0,0,0,0,0,0,0,0,0,0,0,0,0,0,0,0,0,0,0,0,0,0,0,0,0,0,0,0,0,0,0,0,0,0,0,0,0,1.9776,1.9776,0,1.9796,1.9796,1.9796,1.9867,1.9869,1.9871,1.9872,1.9885,1.9884,1.9882,0,0,0,0,0,0,0,0,0,0,0,0,0,1.9796,1.9796,1.9776,1.9776,1.9777,1.9796,1.9796,1.9796,1.9867,1.9869,1.9871,1.9873,1.9885,1.9884,1.9882,0,0,0,0,0,0,0,0,0,0,0,0,0,1.9798,1.9795,1.9776,1.9815,1.9818,1.9795,1.9796,1.9796,1.9867,1.9869,1.9871,1.9874,1.9886,1.9884,1.9882,1.9822,0,0,1.9877,1.9876,0,0,0,0,0,0,0,0,1.9798,1.9798,1.9809,1.9812,1.9816,1.9832,1.9808,1.9804,1.9866,1.9848,1.9872,1.9875,1.9865,1.9865,1.9863,1.9822,1.9823,1.9877,1.9875,1.9875,1.9874,0,0,0,0,0,0,0,1.9798,1.9797,1.9784,1.9809,1.9813,1.9829,1.9832,1.9807,1.9842,1.985,1.9855,1.9857,1.9867,1.9864,1.9864,1.9823,1.9877,1.9875,1.9874,1.9873,1.9736,1.9733,0,0,0,0,0,0,1.9793,1.9797,1.9783,1.9784,1.9813,1.9827,1.983,1.9824,1.9843,1.9848,1.9854,1.986,1.9866,1.9866,1.9864,1.9795,1.9875,1.9873,1.9872,1.9738,1.9735,1.9732,0,0,0,0,0,0,1.9793,1.9791,1.9782,1.9792,1.9792,1.9824,1.9816,1.9823,1.982,1.9846,1.9852,1.9846,1.9868,1.9867,1.9833,1.9797,1.9872,1.9871,1.9741,1.9737,1.9734,1.9657,0,0,0,0,0,0,1.9794,1.9791,1.9769,1.9791,1.9791,1.9751,1.9814,1.9822,1.9818,1.9825,1.9839,1.9844,1.987,1.9835,1.9831,1.9796,1.9869,1.9745,1.974,1.9735,1.9662,1.965,1.964,0,0,0,0,0,1.9794,1.9745,1.9768,1.9766,1.9765,1.9749,1.9749,1.9782,1.9815,1.9793,1.981,1.9844,1.9802,1.9831,1.9827,1.979,1.9747,1.9741,1.9735,1.9667,1.9653,1.9641,0,0,0,0,0,0,1.9714,1.9748,1.9774,1.9731,1.9737,1.9761,1.9734,1.9765,1.976,1.9767,1.9806,1.9808,1.9769,1.9777,1.9808,1.9734,1.978,1.9773,1.973,1.9716,1.9706,1.9703,1.9868,0,0,0,0,0,1.9693,1.9679,1.9708,1.9667,1.9669,1.9701,1.9695,1.9721,1.9728,1.973,1.9744,1.9748,1.9736,1.9727,1.9717,1.9665,1.9669,1.9638,1.9627,1.9618,1.9611,1.9584,1.9571,1.9713,1.9713,1.9713,0,0,1.9645,1.9662,1.9651,1.9652,1.9659,1.9643,1.9702,1.9682,1.967,1.9726,1.9695,1.9706,1.9713,1.967,1.9651,1.9675,1.9573,1.9611,1.9603,1.9601,1.9577,1.9563,1.9551,1.9709,1.971,1.9711,0,0,1.9552,1.9563,1.9531,1.9539,1.9551,1.9573,1.9565,1.9586,1.9596,1.9567,1.9609,1.9595,1.9573,1.9577,1.9575,1.9487,1.9518,1.9482,1.9424,1.9398,1.9386,1.9377,1.9344,1.9333,1.9476,1.9476,1.9475,0,1.9491,1.947,1.951,1.9487,1.9486,1.954,1.9507,1.9512,1.9519,1.9517,1.9544,1.952,1.9528,1.9487,1.9466,1.9463,1.9455,1.948,1.9385,1.9376,1.9367,1.9337,1.9325,1.9471,1.9472,1.9472,1.9472,0,1.9394,1.9379,1.9351,1.936,1.9356,1.9328,1.9363,1.9354,1.9381,1.94,1.9369,1.9382,1.9377,1.9369,1.9393,1.9332,1.9346,1.9379,1.9426,1.9349,1.9321,1.931,1.9465,1.9466,1.9468,1.9469,0,0,1.9247,1.9282,1.9271,1.9277,1.9296,1.9284,1.9259,1.9256,1.9248,1.9252,1.9231,1.9213,1.9245,1.9244,1.9269,1.9246,1.9175,1.9282,1.9283,1.9261,1.9108,1.9082,1.9068,1.9197,1.9195,1.9193,1.9107,0,1.9158,1.9119,1.9156,1.9108,1.9095,1.9147,1.9126,1.9134,1.9152,1.9142,1.9161,1.9148,1.919,1.919,1.917,1.9188,1.9145,1.9195,1.9176,1.9175,1.9171,1.9054,1.9026,1.8944,1.9097,1.9095,1.9093,0,1.9047,1.905,1.9002,1.9026,1.9022,1.9002,1.9003,1.8994,1.9005,1.9019,1.902,1.9052,1.9029,1.9077,1.9044,1.9077,1.9072,1.908,1.9078,1.9076,1.9128,1.9047,1.8918,1.8905,1.9077,1.9078,1.9079,0,1.8944,1.8936,1.8906,1.8909,1.8937,1.8922,1.8932,1.8946,1.8943,1.8944,1.8942,1.894,1.8937,1.8934,1.8965,1.8997,1.8928,1.8979,1.8938,1.8937,1.8919,1.892,1.8786,1.8918,1.8919,1.8919,1.8919,0,1.884,1.8808,1.8861,1.8842,1.8809,1.8852,1.8817,1.8832,1.8845,1.883,1.8875,1.8859,1.8902,1.8891,1.8915,1.8884,1.8883,1.8893,1.8899,1.8888,1.8886,1.8883,1.8889,1.8916,1.8916,1.8917,1.8917,0,1.8718,1.8752,1.8724,1.8754,1.8761,1.8734,1.8759,1.8743,1.8766,1.8746,1.8744,1.8778,1.8767,1.8799,1.8792,1.8808,1.8763,1.878,1.876,1.8764,1.8722,1.8725,1.8581,1.8564,1.8708,1.8706,1.8705,0,1.8648,1.8625,1.8654,1.8649,1.8658,1.8647,1.8646,1.8687,1.8683,1.8696,1.8678,1.8672,1.8669,1.8649,1.8672,1.8667,1.8683,1.8633,1.8682,1.8672,1.8681,1.8682,1.868,1.8622,1.862,1.8619,1.8618,0,1.852,1.8539,1.8535,1.8538,1.8535,1.8539,1.8545,1.8537,1.8582,1.8575,1.8566,1.8564,1.856,1.8553,1.8554,1.8563,1.8597,1.8603,1.8593,1.858,1.8569,1.8574,1.8731,1.8605,1.8606,1.8607,1.8608,1.8608,1.8421,1.8404,1.8423,1.8417,1.8428,1.8433,1.842,1.8442,1.8437,1.8438,1.8462,1.8449,1.8462,1.8468,1.8474,1.8463,1.8486,1.8472,1.8468,1.8463,1.8456,1.8573,1.8463,1.8464,1.8464,1.8465,1.8465,0,1.8295,1.8311,1.8306,1.8315,1.8311,1.8347,1.8357,1.835,1.8339,1.8349,1.8347,1.8337,1.8331,1.8355,1.8353,1.8339,1.8355,1.8337,1.8337,1.8339,1.8436,1.8445,1.8325,1.8325,1.8325,1.8325,1.8325,1.8325,1.8229,1.8203,1.8224,1.8203,1.8218,1.8207,1.821,1.8215,1.8224,1.8212,1.8208,1.8225,1.8241,1.8241,1.8237,1.8244,1.824,1.8217,1.8229,1.8319,1.8332,1.8345,1.8353,1.8216,1.8216,1.8133,1.8132,1.8131]}]]